Back to catalog

ONEWEB-0241

AliveCommunicationsPO
NORAD 48773·PAYLOAD·🇬🇧 United Kingdom

Launched May 28, 2021 from Vostochny Cosmodrome

Loading…

Next Passes (next 24 hours)

TLE

FreshSource: CelesTrak SupGP

Epoch: Sep 14, 2026, 10:08 UTC

1 48773C 21045G   26257.42236528  .00002367  00000+0  62961-2 0  2575
2 48773  87.8991 241.4109 0001999  75.8443  27.3683 13.15549700    18

Track ONEWEB-0241 in real time with AllMySat

Download on the App Store